Location: *
(28.2408°N, 53.4600°E)
Time: 20:11:59
(UTC+00:00)

CSL-04 Rocket - Pass Details

Date: 22 September 2019
Orbit: 806 x 860 km, 99.0° (Epoch: 20 October)

Event Time Altitude Azimuth Distance (km) Brightness Sun altitude
Rises 15:08:45 0° 169° (S) 3,378 6.7 -10.8°
Reaches altitude 10° 15:11:05 10° 170° (S) 2,454 6.0 -11.3°
Maximum altitude 15:16:33 79° 257° (WSW) 869 3.9 -12.5°
Drops below altitude 10° 15:22:06 10° 344° (NNW) 2,492 6.5 -13.7°
Sets 15:24:29 0° 346° (NNW) 3,434 7.2 -14.3°
